Location: Wiler
(46.4041°N, 7.7840°E)
Time: 16:22:04
(UTC+00:00)

Cosmos 1328 - Pass Details

Date: 09 April 2020
Orbit: 540 x 544 km, 82.5° (Epoch: 25 May)

Event Time Altitude Azimuth Distance (km) Brightness Sun altitude
Rises 19:05:57 0° 349° (N) 2,722 7.9 -10.2°
Reaches altitude 10° 19:08:08 10° 348° (NNW) 1,824 7.0 -10.5°
Maximum altitude 19:12:08 74° 263° (W) 572 4.0 -11.1°
Drops below altitude 10° 19:16:06 10° 179° (S) 1,808 6.2 -11.8°
Sets 19:18:14 0° 177° (S) 2,695 7.1 -12.1°
